Precipitable_Water
0.66 0.70 0.74 0.83 0.95 1.02 1.02 0.94 0.84 0.76 0.85 0.97 1.10 1.36 1.36 1.31 1.31 1.26 1.19 1.17 1.19 1.22 1.28 1.30 1.35 1.38 1.43 1.47 1.50 1.53 1.52 1.45 1.40 1.39 1.38 1.31 1.24 1.19
0.65 0.68 0.72 0.79 0.84 0.91 0.97 0.97 0.99 0.89 0.74 0.91 0.99 1.20 1.37 1.37 1.33 1.30 1.23 1.18 1.16 1.19 1.24 1.31 1.33 1.35 1.37 1.40 1.44 1.51 1.52 1.48 1.42 1.44 1.44 1.40 1.35 1.30
0.59 0.61 0.67 0.72 0.80 0.84 0.95 0.97 0.97 0.95 0.78 0.82 0.92 1.09 1.29 1.39 1.33 1.35 1.31 1.30 1.22 1.16 1.21 1.28 1.29 1.32 1.31 1.36 1.41 1.44 1.46 1.47 1.48 1.45 1.47 1.45 1.42 1.37
0.55 0.58 0.58 0.65 0.73 0.86 0.86 0.84 0.95 0.96 0.92 0.82 0.96 1.06 1.27 1.41 1.34 1.32 1.31 1.31 1.24 1.14 1.16 1.27 1.27 1.24 1.24 1.29 1.37 1.39 1.42 1.41 1.47 1.47 1.49 1.47 1.45 1.41
0.54 0.56 0.57 0.59 0.63 0.73 0.83 0.83 0.87 1.01 0.95 0.96 0.87 1.06 1.09 1.23 1.32 1.40 1.37 1.31 1.32 1.28 1.19 1.21 1.24 1.21 1.20 1.23 1.29 1.34 1.36 1.41 1.41 1.46 1.48 1.49 1.46 1.40
0.54 0.55 0.57 0.59 0.60 0.64 0.72 0.78 0.80 0.84 0.90 0.94 1.01 0.95 1.07 1.16 1.29 1.20 1.25 1.34 1.27 1.29 1.21 1.19 1.24 1.22 1.20 1.21 1.25 1.30 1.30 1.33 1.35 1.38 1.41 1.41 1.43 1.44
0.53 0.56 0.59 0.61 0.62 0.62 0.66 0.67 0.73 0.76 0.82 0.85 0.89 0.97 1.06 1.05 1.12 1.18 1.17 1.26 1.26 1.26 1.16 1.15 1.15 1.20 1.16 1.21 1.22 1.25 1.29 1.28 1.23 1.22 1.22 1.24 1.23 1.23
0.51 0.55 0.59 0.61 0.62 0.62 0.62 0.64 0.63 0.67 0.70 0.71 0.72 0.81 0.92 1.05 1.14 1.11 1.16 1.18 1.12 1.34 1.22 1.17 1.19 1.14 1.22 1.20 1.21 1.21 1.18 1.16 1.15 1.18 1.18 1.19 1.18 1.10
0.51 0.52 0.54 0.56 0.58 0.58 0.61 0.64 0.61 0.57 0.59 0.63 0.66 0.66 0.78 0.90 0.95 1.11 1.17 1.15 1.16 1.31 1.28 1.16 1.21 1.15 1.28 1.28 1.19 1.20 1.18 1.15 1.13 1.13 1.13 1.14 1.13 1.10
0.45 0.48 0.50 0.52 0.55 0.56 0.56 0.59 0.59 0.56 0.64 0.60 0.61 0.67 0.70 0.81 0.87 0.98 1.03 1.12 1.21 1.27 1.34 1.11 1.18 1.16 1.30 1.34 1.33 1.23 1.17 1.14 1.12 1.10 1.08 1.08 1.08 1.08
0.37 0.42 0.44 0.45 0.49 0.49 0.54 0.56 0.58 0.55 0.61 0.66 0.69 0.67 0.71 0.82 0.88 0.94 0.94 0.94 0.98 1.09 1.12 1.13 1.16 1.18 1.24 1.27 1.36 1.30 1.25 1.18 1.14 1.11 1.09 1.07 1.05 1.02
0.21 0.25 0.33 0.39 0.40 0.45 0.46 0.47 0.46 0.50 0.56 0.62 0.64 0.65 0.65 0.72 0.82 0.86 0.85 0.83 0.87 0.93 0.99 0.99 1.05 1.12 1.05 1.21 1.28 1.31 1.29 1.28 1.25 1.17 1.11 1.06 1.03 1.04
0.13 0.14 0.17 0.21 0.28 0.32 0.36 0.40 0.44 0.48 0.45 0.48 0.53 0.61 0.63 0.61 0.69 0.74 0.75 0.77 0.78 0.80 0.88 0.92 0.92 0.96 1.00 1.02 1.12 1.16 1.15 1.15 1.16 1.12 1.06 1.03 1.00 1.00
0.12 0.13 0.13 0.14 0.15 0.17 0.22 0.25 0.32 0.36 0.41 0.44 0.43 0.41 0.45 0.51 0.61 0.64 0.66 0.68 0.73 0.75 0.81 0.85 0.82 0.84 0.85 0.89 0.92 1.06 1.12 1.14 1.13 1.12 1.11 1.08 1.03 0.99
0.12 0.12 0.12 0.13 0.13 0.14 0.14 0.17 0.17 0.21 0.23 0.27 0.33 0.37 0.40 0.43 0.47 0.52 0.56 0.62 0.65 0.70 0.74 0.76 0.75 0.77 0.77 0.79 0.81 0.88 0.94 1.01 1.06 1.06 1.08 1.09 1.06 1.09
0.12 0.12 0.12 0.12 0.12 0.14 0.14 0.14 0.15 0.16 0.17 0.18 0.21 0.24 0.27 0.33 0.38 0.43 0.43 0.47 0.49 0.51 0.58 0.62 0.67 0.68 0.69 0.75 0.77 0.80 0.86 0.84 0.96 0.98 0.98 1.01 1.04 1.05
0.13 0.13 0.12 0.12 0.11 0.11 0.12 0.13 0.14 0.14 0.15 0.16 0.16 0.16 0.17 0.18 0.23 0.29 0.32 0.40 0.42 0.42 0.44 0.49 0.54 0.59 0.64 0.69 0.69 0.73 0.77 0.81 0.86 0.87 0.88 0.86 0.91 0.94
0.12 0.11 0.11 0.11 0.11 0.11 0.11 0.11 0.12 0.12 0.13 0.14 0.15 0.15 0.15 0.16 0.17 0.19 0.21 0.24 0.28 0.34 0.41 0.43 0.43 0.45 0.48 0.54 0.61 0.64 0.70 0.72 0.76 0.79 0.80 0.75 0.77 0.86
0.12 0.11 0.11 0.11 0.11 0.11 0.11 0.11 0.10 0.11 0.12 0.12 0.12 0.13 0.14 0.15 0.16 0.16 0.17 0.18 0.18 0.23 0.28 0.33 0.39 0.39 0.35 0.35 0.45 0.54 0.48 0.52 0.59 0.65 0.69 0.69 0.69 0.74
0.12 0.12 0.11 0.11 0.11 0.11 0.11 0.11 0.11 0.11 0.11 0.10 0.11 0.11 0.12 0.13 0.14 0.14 0.16 0.16 0.17 0.19 0.19 0.23 0.26 0.30 0.32 0.35 0.35 0.40 0.47 0.48 0.47 0.45 0.48 0.57 0.61 0.67
0.13 0.13 0.12 0.12 0.12 0.11 0.11 0.11 0.11 0.10 0.10 0.10 0.10 0.10 0.10 0.11 0.12 0.13 0.14 0.15 0.16 0.17 0.17 0.19 0.22 0.27 0.30 0.31 0.31 0.36 0.41 0.46 0.47 0.45 0.46 0.43 0.42 0.45
0.14 0.14 0.13 0.13 0.12 0.11 0.11 0.11 0.10 0.10 0.10 0.09 0.09 0.10 0.10 0.11 0.11 0.11 0.13 0.13 0.14 0.15 0.16 0.19 0.21 0.23 0.23 0.24 0.24 0.25 0.31 0.40 0.44 0.46 0.47 0.45 0.42 0.38
0.15 0.14 0.14 0.13 0.12 0.11 0.11 0.11 0.10 0.10 0.10 0.10 0.09 0.09 0.09 0.10 0.11 0.11 0.12 0.13 0.14 0.14 0.15 0.16 0.18 0.21 0.22 0.23 0.23 0.25 0.27 0.30 0.35 0.39 0.41 0.43 0.43 0.46
Wind_Speed
33 37 42 44 44 46 47 48 51 47 50 49 47 51 52 49 49 49 49 48 47 45 43 41 40 40 39 38 39 38 38 38 37 35 33 32 31 30
28 32 35 41 44 45 46 47 50 51 50 47 50 46 51 52 50 49 48 49 49 48 46 44 42 40 40 40 40 41 40 40 38 37 35 34 33 32
26 28 30 34 39 41 44 46 48 49 51 49 49 49 52 53 50 49 48 47 46 48 47 45 43 42 40 40 40 40 40 41 40 39 37 36 35 34
23 26 29 32 35 36 40 41 45 47 49 49 49 50 44 54 53 50 48 47 46 44 45 45 44 42 40 39 39 39 39 39 40 40 39 38 37 36
21 22 23 26 31 37 36 39 39 37 45 45 45 48 48 50 54 51 49 47 47 45 44 44 44 42 41 39 38 39 40 40 39 40 40 40 40 38
20 20 22 24 27 30 37 35 37 38 40 42 40 45 46 51 54 52 49 48 48 46 45 44 44 43 42 40 40 39 40 39 39 40 40 40 40 40
19 18 20 21 23 26 30 35 35 35 37 39 37 41 42 45 53 53 53 51 51 49 47 46 45 44 43 42 41 40 39 39 38 38 39 40 41 42
20 16 15 16 18 21 25 29 30 34 33 36 37 35 36 34 47 53 54 53 49 51 48 47 47 45 44 44 43 42 42 41 40 39 40 40 41 42
20 18 16 15 16 14 15 20 23 25 29 32 33 35 36 33 39 41 50 56 54 50 50 49 49 48 47 46 46 45 45 45 44 43 42 42 42 43
20 19 17 17 16 11 9 13 17 19 22 26 28 30 33 35 36 38 40 45 52 53 51 49 49 50 49 48 48 48 47 46 45 45 45 45 45 46
19 18 18 18 16 12 7 6 9 14 15 19 23 25 28 28 31 30 34 37 44 44 48 48 49 49 50 50 49 49 48 48 48 47 47 46 45 46
18 19 19 18 18 15 11 8 6 9 12 13 20 22 25 27 27 30 32 30 33 37 42 46 49 49 50 50 51 50 50 51 50 50 50 49 47 47
17 18 19 19 18 17 14 10 8 8 10 11 12 15 19 22 25 28 29 31 33 37 40 42 46 47 50 49 48 50 51 52 52 52 53 53 52 51
19 18 18 19 19 18 15 14 11 9 9 12 11 12 15 18 23 25 27 30 32 32 34 36 40 42 45 48 51 52 51 51 51 51 50 50 51 52
19 20 20 19 19 18 18 16 13 12 12 12 13 14 15 17 19 20 24 27 31 33 34 34 37 40 45 47 49 51 51 50 53 53 52 52 51 50
21 20 20 20 20 19 19 18 16 15 15 14 16 17 18 19 21 21 23 24 26 30 33 35 38 41 44 45 47 50 51 50 52 51 52 52 52 52
22 22 22 22 22 22 21 20 19 18 18 17 17 18 20 22 24 24 26 27 27 29 33 34 35 36 40 43 44 44 45 47 49 52 53 54 53 52
23 23 24 24 24 24 24 23 22 22 21 20 20 21 23 24 25 27 28 28 30 31 31 33 34 34 34 36 38 41 42 45 46 46 47 49 51 50
24 24 24 25 26 26 26 26 26 26 25 24 24 24 25 26 27 28 30 30 31 32 33 33 35 35 36 36 39 39 41 43 45 47 48 47 48 49
26 26 26 27 27 28 28 29 29 29 29 29 29 29 29 29 30 31 31 32 33 34 35 35 36 37 38 40 41 41 41 42 42 43 44 46 47 47
28 28 29 29 30 30 31 31 32 32 32 32 32 32 33 32 32 32 33 34 34 34 35 36 37 39 40 41 41 41 41 41 41 42 43 43 43 43
31 31 31 32 32 33 33 34 34 35 35 35 35 35 35 35 35 35 35 34 35 36 37 38 39 39 39 40 41 42 42 41 41 41 41 42 42 41
33 33 33 34 34 35 35 36 36 37 37 37 38 38 37 37 37 37 36 36 36 37 38 39 39 38 39 39 40 40 41 41 40 39 40 41 43 44
Wind_Direction
262 255 249 247 247 248 247 247 244 242 241 240 239 238 237 237 237 236 236 236 237 238 240 241 242 243 245 244 243 242 243 242 241 242 243 244 245 247
269 262 255 249 247 249 247 248 244 244 245 243 241 239 235 236 236 236 237 236 237 238 239 241 242 243 244 245 243 243 243 240 240 241 242 243 245 246
275 268 261 256 250 250 249 248 245 242 242 244 242 240 238 234 233 235 236 237 237 237 237 239 241 242 245 244 243 243 241 239 238 239 241 243 244 246
282 274 269 262 254 253 248 250 248 243 241 242 239 239 241 231 232 235 235 236 236 236 236 237 239 241 242 242 241 239 237 237 238 240 242 243 244 245
290 283 276 270 260 253 252 248 246 245 240 241 242 239 238 233 233 233 234 235 234 235 235 236 238 240 240 240 239 238 238 238 241 240 242 245 242 246
297 287 280 277 270 262 249 248 246 244 242 241 243 239 238 235 231 231 233 233 233 235 236 238 238 238 239 239 238 238 237 239 241 241 242 243 245 247
321 298 289 286 279 267 252 245 245 243 241 241 244 241 239 238 230 233 235 236 234 235 237 238 237 238 238 238 238 237 237 238 240 241 243 245 247 248
346 328 313 306 292 282 258 243 244 242 241 240 240 240 239 240 234 234 235 233 234 234 236 237 236 237 238 237 237 237 238 239 241 244 246 247 249 249
357 356 343 329 321 296 262 243 241 241 240 239 241 240 238 241 237 243 237 233 235 236 235 237 237 238 238 239 238 239 241 242 244 246 248 250 251 251
359 359 356 352 347 328 291 254 240 240 243 238 238 240 240 246 242 240 240 239 235 236 237 239 238 239 239 241 240 241 242 243 245 247 249 251 253 253
0 359 360 359 358 357 343 311 253 243 247 240 241 240 240 244 245 244 236 241 234 235 237 238 239 240 240 241 241 241 243 245 246 248 250 252 253 255
360 1 1 2 1 358 347 329 304 267 254 260 250 248 246 247 247 244 248 243 237 237 240 240 240 241 242 242 243 244 245 247 248 249 250 252 253 256
358 359 0 1 360 360 357 348 318 301 270 274 264 256 252 249 252 249 248 247 245 244 244 244 244 242 241 244 245 245 247 248 249 250 251 252 253 255
2 359 357 358 359 359 355 348 334 316 299 279 285 276 269 262 262 258 255 251 246 246 247 245 245 246 244 247 247 248 247 248 249 251 252 253 253 254
359 359 360 359 359 356 356 353 341 328 313 297 292 286 280 274 269 266 259 258 252 250 251 251 253 251 251 250 249 249 252 250 251 251 252 252 252 253
4 2 359 357 356 354 352 350 344 335 327 310 300 289 285 281 276 275 270 270 260 257 256 258 259 257 255 253 253 252 251 251 251 252 253 251 253 252
5 4 3 0 358 356 353 349 344 338 329 318 309 301 293 289 283 281 276 271 268 267 264 264 262 260 258 257 253 252 253 254 254 253 253 253 252 253
359 360 359 358 357 353 351 348 346 342 334 326 317 309 301 294 290 285 281 276 272 270 267 266 265 264 262 258 254 256 256 255 256 255 254 251 252 251
350 350 349 349 349 348 346 344 341 338 333 329 324 316 309 302 295 289 285 280 275 273 270 268 267 265 264 262 261 258 261 260 258 256 254 253 253 253
340 339 339 339 338 338 337 337 335 333 330 327 323 318 313 308 302 296 289 283 278 275 272 270 269 267 265 263 263 264 263 260 259 257 255 254 254 253
331 331 330 330 330 330 330 329 329 327 326 324 321 318 314 309 304 300 293 286 282 276 274 272 271 269 266 264 262 262 263 260 258 256 255 254 254 253
324 324 324 324 324 324 324 324 324 323 323 321 319 316 314 309 305 300 294 288 282 278 275 273 272 269 267 265 263 264 262 261 259 255 253 252 252 252
319 319 319 319 320 320 320 320 321 320 320 319 318 316 313 310 307 301 294 288 283 279 276 274 271 269 267 265 264 262 261 260 258 255 255 255 251 251